Regional Weather Roundup
Issued by NWS

Home | Current Version | Previous Version | Graphics & Text | Print | Product List | Glossary On
Versions: 1 2 3 4 5 6 7 8 9 10 11 12 13 14 15 16 17 18 19 20 21 22 23 24 25 26 27 28 29 30 31 32 33 34 35 36 37 38 39 40 41 42 43 44 45 46 47 48 49 50
000
ASUS43 KFSD 141310
RWRSD

WEATHER ROUNDUP FOR SOUTH DAKOTA
NATIONAL WEATHER SERVICE SIOUX FALLS SD
800 AM CDT SUN SEP 14 2014

NOTE: "FAIR" INDICATES FEW OR NO CLOUDS BELOW 12,000 FEET WITH NO
SIGNIFICANT WEATHER AND/OR OBSTRUCTIONS TO VISIBILITY.


SDZ001>005-009-010-012>017-141400-
NORTHWEST AND NORTH CENTRAL SOUTH DAKOTA

CITY           SKY/WX    TMP DP  RH WIND       PRES   REMARKS
BUFFALO          N/A     33  31  92 S7        30.10R WCI  27
MOBRIDGE       CLEAR     37  36  96 NE3       30.16R
$$

SDZ012>016-024>037-041>051-057-063-072>074-141400-
SOUTHWEST AND SOUTH CENTRAL SOUTH DAKOTA

CITY           SKY/WX    TMP DP  RH WIND       PRES   REMARKS
RAPID CTY ARPT MOCLDY    35  32  88 NW5       30.18R
PIERRE         PTCLDY    40  39  97 SW3       30.18R
CUSTER         CLOUDY    34  31  88 NE6       30.16R WCI  29
ELLSWORTH AFB  CLEAR     37  34  87 SW2       30.17R
PHILIP         CLOUDY    36  34  92 W3        30.19R
PINE RIDGE     CLOUDY    41  38  89 E6        30.15R
WINNER         FAIR      39  36  89 SE3       30.19S
$$

SDZ004>011-016>023-039-040-141400-
NORTHEAST SOUTH DAKOTA

CITY           SKY/WX    TMP DP  RH WIND       PRES   REMARKS
ABERDEEN       CLEAR     35  33  92 CALM      30.17R
WATERTOWN      CLEAR     43  39  86 CALM      30.14S
SISSETON         N/A     44  39  82 W6        30.13R
$$

SDZ017-020-022-023-036>040-048>070-141400-
SOUTHEAST SOUTH DAKOTA

CITY           SKY/WX    TMP DP  RH WIND       PRES   REMARKS
SIOUX FALLS    PTCLDY    43  43 100 CALM      30.17R
HURON          PTCLDY    40  37  89 CALM      30.18R
CHAMBERLAIN    CLEAR     39  38  97 CALM      30.19S
MITCHELL       CLEAR     42  39  89 W3        30.20R
YANKTON        PTCLDY    45  41  87 NW7       30.18S
$$

ABBREVIATIONS USED IN REMARKS
   TC - TEMPERATURE IN CELSIUS
  WCI - WIND CHILL INDEX
   HX - HEAT INDEX
  VSB - VISIBILITY




USA.gov is the U.S. government's official web portal to all federal, state and local government web resources and services.